EW9807 Weather Reports


time (UTC)temp
C
wind
direction
speed
KPH
gust
KPH
rain 1hr
cm
rain 24hr
cm
rain mn
cm
humidity
%
barometer
mb
20260905185509 33 65 1.6 3.2 0.00 0.00 0.00 54 1010.3
20260905185009 34 68 0.0 8.0 0.00 0.00 0.00 52 1010.4
20260905184513 35 68 0.0 8.0 0.00 0.00 0.00 51 1010.5
20260905184007 35 188 1.6 6.4 0.00 0.00 0.00 50 1010.5
20260905183507 35 108 0.0 3.2 0.00 0.00 0.00 53 1010.7
20260905183005 35 103 0.0 9.7 0.00 0.00 0.00 50 1010.8
20260905182506 35 107 4.8 9.7 0.00 0.00 0.00 50 1010.9
20260905182005 35 53 0.0 8.0 0.00 0.00 0.00 50 1010.9
20260905181504 35 78 1.6 8.0 0.00 0.00 0.00 51 1011.0
20260905181004 35 158 1.6 6.4 0.00 0.00 0.00 52 1011.0
20260905180502 35 162 0.0 6.4 0.00 0.00 0.00 57 1011.0
20260905180005 35 252 1.6 8.0 0.00 0.00 0.00 52 1011.0
20260905175501 35 206 1.6 8.0 0.00 0.00 0.00 53 1011.0
20260905175100 34 210 4.8 8.0 0.00 0.00 0.00 57 1011.1
20260905174604 32 186 0.0 0.0 0.00 0.00 0.00 60 1011.2
20260905174059 32 186 0.0 1.6 0.00 0.00 0.00 59 1011.4
20260905173558 33 186 0.0 4.8 0.00 0.00 0.00 58 1011.4
20260905173057 34 184 1.6 4.8 0.00 0.00 0.00 55 1011.6
20260905172556 35 205 1.6 3.2 0.00 0.00 0.00 57 1011.5
20260905172055 34 205 0.0 8.0 0.00 0.00 0.00 55 1011.7
20260905171554 33 203 1.6 8.0 0.00 0.00 0.00 57 1011.7
20260905171053 33 280 1.6 4.8 0.00 0.00 0.00 58 1011.7
20260905170552 32 80 0.0 3.2 0.00 0.00 0.00 59 1011.7
20260905170053 32 46 0.0 3.2 0.00 0.00 0.00 59 1011.9
20260905165552 33 46 0.0 3.2 0.00 0.00 0.00 57 1011.9
20260905165052 33 46 0.0 6.4 0.00 0.00 0.00 56 1011.9
20260905164552 33 47 1.6 8.0 0.00 0.00 0.00 56 1011.9
20260905164050 33 92 3.2 6.4 0.00 0.00 0.00 58 1012.0
20260905163549 33 340 0.0 3.2 0.00 0.00 0.00 59 1012.1
20260905163049 33 340 0.0 4.8 0.00 0.00 0.00 58 1012.2
20260905162549 33 335 1.6 4.8 0.00 0.00 0.00 59 1012.3
20260905162048 33 284 1.6 6.4 0.00 0.00 0.00 60 1012.4
20260905161547 33 303 0.0 4.8 0.00 0.00 0.00 61 1012.4
20260905161045 33 304 1.6 4.8 0.00 0.00 0.00 61 1012.5
20260905160544 32 288 1.6 4.8 0.00 0.00 0.00 61 1012.5
20260905160044 32 288 1.6 6.4 0.00 0.00 0.00 61 1012.6
20260905155543 32 1 1.6 4.8 0.00 0.00 0.00 62 1012.6
20260905155041 32 101 1.6 4.8 0.00 0.00 0.00 61 1012.6
20260905154541 32 155 1.6 4.8 0.00 0.00 0.00 62 1012.7
20260905154040 32 134 0.0 0.0 0.00 0.00 0.00 60 1012.7
20260905153542 32 134 0.0 0.0 0.00 0.00 0.00 61 1012.7
20260905153038 32 134 0.0 0.0 0.00 0.00 0.00 64 1012.8
20260905152536 31 130 0.0 0.0 0.00 0.00 0.00 63 1012.8
20260905152035 31 130 0.0 0.0 0.00 0.00 0.00 64 1012.8
20260905151534 31 131 0.0 0.0 0.00 0.00 0.00 65 1012.9
20260905151033 31 135 0.0 0.0 0.00 0.00 0.00 65 1012.8
20260905150531 31 133 0.0 0.0 0.00 0.00 0.00 66 1012.9
20260905150030 30 132 0.0 0.0 0.00 0.00 0.00 67 1012.9
20260905145527 30 132 0.0 0.0 0.00 0.00 0.00 69 1013.0
20260905145028 30 133 0.0 0.0 0.00 0.00 0.00 71 1013.0
20260905144525 29 133 0.0 0.0 0.00 0.00 0.00 71 1013.0
20260905144024 28 133 0.0 0.0 0.00 0.00 0.00 72 1013.1
20260905143525 28 133 0.0 0.0 0.00 0.00 0.00 73 1013.1
20260905143033 28 133 0.0 0.0 0.00 0.00 0.00 75 1013.2
20260905142530 28 133 0.0 0.0 0.00 0.00 0.00 75 1013.2
20260905142021 28 134 0.0 0.0 0.00 0.00 0.00 75 1013.2
20260905141520 28 134 0.0 0.0 0.00 0.00 0.00 77 1013.1
20260905141020 28 134 0.0 0.0 0.00 0.00 0.00 76 1013.2
20260905140517 27 134 0.0 0.0 0.00 0.00 0.00 78 1013.2
20260905140017 27 134 0.0 0.0 0.00 0.00 0.00 79 1013.3
20260905135515 27 134 0.0 0.0 0.00 0.00 0.00 80 1013.3
20260905135018 27 134 0.0 0.0 0.00 0.00 0.00 81 1013.3
20260905134524 27 133 0.0 0.0 0.00 0.00 0.00 82 1013.2
20260905134012 26 133 0.0 0.0 0.00 0.00 0.00 82 1013.2
20260905133510 26 133 0.0 3.2 0.00 0.00 0.00 83 1013.3
20260905133010 26 133 0.0 3.2 0.00 0.00 0.00 84 1013.3
20260905132509 26 131 0.0 1.6 0.00 0.00 0.00 85 1013.4
20260905132011 26 131 0.0 1.6 0.00 0.00 0.00 85 1013.4
20260905131509 25 131 0.0 1.6 0.00 0.00 0.00 86 1013.4
20260905131007 25 131 0.0 1.6 0.00 0.00 0.00 87 1013.5
20260905130507 25 131 0.0 1.6 0.00 0.00 0.00 88 1013.6
20260905130006 25 131 0.0 0.0 0.00 0.00 0.00 89 1013.6
20260905125505 25 131 0.0 0.0 0.00 0.00 0.00 90 1013.5
20260905125005 24 131 0.0 0.0 0.00 0.00 0.00 91 1013.4
20260905124508 24 131 0.0 0.0 0.00 0.00 0.00 92 1013.4
20260905124005 23 131 0.0 0.0 0.00 0.00 0.00 93 1013.4
20260905123507 23 131 0.0 0.0 0.00 0.00 0.00 94 1013.4
20260905123023 23 131 0.0 0.0 0.00 0.00 0.00 94 1013.5
20260905122503 23 131 0.0 0.0 0.00 0.00 0.00 94 1013.5
20260905122006 23 131 0.0 0.0 0.00 0.00 0.00 94 1013.5
20260905121502 23 131 0.0 0.0 0.00 0.00 0.00 94 1013.5
20260905121001 23 131 0.0 0.0 0.00 0.00 0.00 94 1013.4
20260905120603 22 131 0.0 0.0 0.00 0.00 0.00 94 1013.4
20260905120101 22 131 0.0 0.0 0.00 0.00 0.00 94 1013.2
20260905115559 22 131 0.0 0.0 0.00 0.00 0.00 94 1013.2
20260905115103 22 131 0.0 0.0 0.00 0.00 0.00 94 1013.2
20260905114559 22 131 0.0 0.0 0.00 0.00 0.00 94 1013.1
20260905114058 22 131 0.0 0.0 0.00 0.00 0.00 94 1013.1
20260905113557 22 131 0.0 0.0 0.00 0.00 0.00 94 1013.1
20260905113100 22 131 0.0 0.0 0.00 0.00 0.00 94 1013.0
20260905112600 22 131 0.0 0.0 0.00 0.00 0.00 94 1013.0
20260905112056 22 131 0.0 0.0 0.00 0.00 0.00 94 1013.0
20260905111600 22 131 0.0 0.0 0.00 0.00 0.00 94 1012.9
20260905111056 22 131 0.0 0.0 0.00 0.00 0.00 94 1012.8
20260905110601 22 131 0.0 0.0 0.00 0.00 0.00 94 1012.8
20260905110055 22 131 0.0 0.0 0.00 0.00 0.00 94 1012.8
20260905105556 22 131 0.0 0.0 0.00 0.00 0.00 94 1012.7
20260905105056 22 131 0.0 0.0 0.00 0.00 0.00 94 1012.8
20260905104555 22 131 0.0 0.0 0.00 0.00 0.00 94 1012.8
20260905104056 22 131 0.0 0.0 0.00 0.00 0.00 94 1012.7
20260905103556 22 131 0.0 0.0 0.00 0.00 0.00 94 1012.6
20260905103100 22 131 0.0 0.0 0.00 0.00 0.00 94 1012.6
20260905102555 22 131 0.0 0.0 0.00 0.00 0.00 94 1012.5
20260905102054 22 131 0.0 0.0 0.00 0.00 0.00 94 1012.4
20260905101554 22 131 0.0 0.0 0.00 0.00 0.00 94 1012.4
20260905101053 22 131 0.0 0.0 0.00 0.00 0.00 94 1012.4
20260905100553 22 131 0.0 0.0 0.00 0.00 0.00 93 1012.5
20260905100100 22 131 0.0 0.0 0.00 0.00 0.00 93 1012.4
20260905095552 22 131 0.0 0.0 0.00 0.00 0.00 93 1012.4
20260905095052 22 131 0.0 0.0 0.00 0.00 0.00 93 1012.4
20260905094552 22 131 0.0 0.0 0.00 0.00 0.00 93 1012.4
20260905094051 22 131 0.0 0.0 0.00 0.00 0.00 93 1012.4
20260905093552 23 131 0.0 0.0 0.00 0.00 0.00 93 1012.4
20260905093052 23 131 0.0 0.0 0.00 0.00 0.00 93 1012.3
20260905092552 23 131 0.0 0.0 0.00 0.00 0.00 93 1012.4
20260905092052 23 131 0.0 0.0 0.00 0.00 0.00 93 1012.4
20260905091555 23 131 0.0 0.0 0.00 0.00 0.00 92 1012.4
20260905091051 23 131 0.0 0.0 0.00 0.00 0.00 92 1012.4
20260905090549 23 131 0.0 0.0 0.00 0.00 0.00 92 1012.3
20260905090049 23 131 0.0 0.0 0.00 0.00 0.00 92 1012.4
20260905085550 23 131 0.0 0.0 0.00 0.00 0.00 92 1012.4
20260905085048 23 131 0.0 0.0 0.00 0.00 0.00 92 1012.4
20260905084604 23 131 0.0 0.0 0.00 0.00 0.00 92 1012.3
20260905084048 23 131 0.0 0.0 0.00 0.00 0.00 92 1012.3
20260905083551 23 131 0.0 0.0 0.00 0.00 0.00 92 1012.4
20260905083050 23 131 0.0 0.0 0.00 0.00 0.00 92 1012.4
20260905082547 23 131 0.0 0.0 0.00 0.00 0.00 92 1012.3
20260905082047 23 131 0.0 0.0 0.00 0.00 0.00 92 1012.4
20260905081547 23 131 0.0 0.0 0.00 0.00 0.00 91 1012.3
20260905081048 23 131 0.0 0.0 0.00 0.00 0.00 91 1012.2
20260905080546 23 131 0.0 0.0 0.00 0.00 0.00 91 1012.3
20260905080112 23 131 0.0 0.0 0.00 0.00 0.00 91 1012.3
20260905075546 23 131 0.0 0.0 0.00 0.00 0.00 91 1012.3
20260905075044 23 131 0.0 0.0 0.00 0.00 0.00 90 1012.2
20260905074544 23 131 0.0 0.0 0.00 0.00 0.00 90 1012.3
20260905074044 23 131 0.0 0.0 0.00 0.00 0.00 90 1012.3
20260905073543 23 131 0.0 0.0 0.00 0.00 0.00 90 1012.2
20260905073044 23 131 0.0 0.0 0.00 0.00 0.00 90 1012.1
20260905072547 23 131 0.0 0.0 0.00 0.00 0.00 90 1012.0
20260905072043 23 131 0.0 0.0 0.00 0.00 0.00 90 1011.9
20260905071543 23 131 0.0 0.0 0.00 0.00 0.00 90 1012.0
20260905071042 23 131 0.0 0.0 0.00 0.00 0.00 90 1012.0
20260905070542 23 131 0.0 0.0 0.00 0.00 0.00 89 1011.9
20260905070050 23 131 0.0 0.0 0.00 0.00 0.00 89 1011.7
20260905065543 23 131 0.0 0.0 0.00 0.00 0.00 88 1011.9
20260905065040 23 131 0.0 0.0 0.00 0.00 0.00 88 1012.0
20260905064547 23 131 0.0 0.0 0.00 0.00 0.00 88 1012.2
20260905064040 23 131 0.0 0.0 0.00 0.00 0.00 87 1012.3
20260905063538 24 131 0.0 0.0 0.00 0.00 0.00 87 1012.4
20260905063041 24 131 0.0 0.0 0.00 0.00 0.00 86 1012.4
20260905062535 24 131 0.0 0.0 0.00 0.00 0.00 86 1012.4
20260905062034 24 131 0.0 0.0 0.00 0.00 0.00 85 1012.5
20260905061535 25 131 0.0 0.0 0.00 0.00 0.00 85 1012.5
20260905061034 25 131 0.0 0.0 0.00 0.00 0.00 84 1012.6
20260905060530 25 131 0.0 0.0 0.00 0.00 0.00 84 1012.7
20260905060043 25 131 0.0 0.0 0.00 0.00 0.00 83 1012.7
20260905055529 25 131 0.0 1.6 0.00 0.00 0.00 83 1012.8
20260905055028 25 131 0.0 3.2 0.00 0.00 0.00 83 1012.9
20260905054536 25 131 0.0 3.2 0.00 0.00 0.00 82 1012.9
20260905054033 25 131 0.0 1.6 0.00 0.00 0.00 82 1013.0
20260905053528 26 131 0.0 1.6 0.00 0.00 0.00 81 1013.0
20260905053028 26 131 0.0 0.0 0.00 0.00 0.00 81 1012.9
20260905052527 26 131 0.0 0.0 0.00 0.00 0.00 80 1012.9
20260905052027 26 131 0.0 3.2 0.00 0.00 0.00 80 1012.9
20260905051527 26 131 0.0 3.2 0.00 0.00 0.00 79 1012.9
20260905051027 26 131 0.0 3.2 0.00 0.00 0.00 79 1012.9
20260905050526 26 131 0.0 3.2 0.00 0.00 0.00 79 1013.0
20260905050028 26 131 0.0 3.2 0.00 0.00 0.00 78 1013.0
20260905045525 26 146 0.0 3.2 0.00 0.00 0.00 78 1013.0
20260905045030 26 145 0.0 4.8 0.00 0.00 0.00 78 1012.9
20260905044534 26 134 0.0 4.8 0.00 0.00 0.00 79 1012.9
20260905044025 25 188 0.0 1.6 0.00 0.00 0.00 80 1013.0
20260905043524 25 188 0.0 1.6 0.00 0.00 0.00 80 1013.1
20260905043023 25 188 0.0 0.0 0.00 0.00 0.00 81 1013.0
20260905042526 25 188 0.0 0.0 0.00 0.00 0.00 80 1013.0
20260905042022 25 188 0.0 0.0 0.00 0.00 0.00 79 1013.0
20260905041522 25 188 0.0 0.0 0.00 0.00 0.00 80 1013.0
20260905041020 25 188 0.0 0.0 0.00 0.00 0.00 79 1012.9
20260905040518 25 188 0.0 0.0 0.00 0.00 0.00 79 1012.8
20260905040024 26 188 0.0 0.0 0.00 0.00 0.00 79 1012.8
20260905035518 26 188 0.0 0.0 0.00 0.00 0.00 78 1012.8
20260905035017 26 188 0.0 0.0 0.00 0.00 0.00 79 1012.8
20260905034518 26 188 0.0 0.0 0.00 0.00 0.00 79 1012.9
20260905034018 26 188 0.0 0.0 0.00 0.00 0.00 78 1012.9
20260905033519 26 188 0.0 0.0 0.00 0.00 0.00 80 1012.9
20260905033017 26 188 0.0 0.0 0.00 0.00 0.00 79 1012.9
20260905032516 26 188 0.0 0.0 0.00 0.00 0.00 78 1012.9
20260905032017 26 188 0.0 0.0 0.00 0.00 0.00 78 1013.0
20260905031529 26 188 0.0 0.0 0.00 0.00 0.00 77 1013.0
20260905031016 26 188 0.0 0.0 0.00 0.00 0.00 77 1013.1
20260905030516 26 188 0.0 0.0 0.00 0.00 0.00 76 1013.2
20260905030017 26 188 0.0 0.0 0.00 0.00 0.00 76 1013.3
20260905025518 26 188 0.0 0.0 0.00 0.00 0.00 76 1013.3
20260905025016 26 188 0.0 0.0 0.00 0.00 0.00 76 1013.3
20260905024517 26 188 0.0 0.0 0.00 0.00 0.00 76 1013.4
20260905024015 26 188 0.0 0.0 0.00 0.00 0.00 76 1013.5
20260905023522 26 188 0.0 0.0 0.00 0.00 0.00 77 1013.5
20260905023018 27 188 0.0 0.0 0.00 0.00 0.00 75 1013.5
20260905022515 27 188 0.0 0.0 0.00 0.00 0.00 77 1013.6
20260905022021 27 188 0.0 0.0 0.00 0.00 0.00 75 1013.6
20260905021529 27 188 0.0 0.0 0.00 0.00 0.00 75 1013.6
20260905021014 27 188 0.0 0.0 0.00 0.00 0.00 74 1013.7
20260905020517 27 188 0.0 0.0 0.00 0.00 0.00 74 1013.7
20260905020014 27 188 0.0 0.0 0.00 0.00 0.00 74 1013.7
20260905015514 27 188 0.0 0.0 0.00 0.00 0.00 74 1013.7
20260905015016 27 188 0.0 0.0 0.00 0.00 0.00 73 1013.8
20260905014514 27 188 0.0 0.0 0.00 0.00 0.00 73 1013.7
20260905014015 27 188 0.0 0.0 0.00 0.00 0.00 73 1013.6
20260905013515 27 188 0.0 0.0 0.00 0.00 0.00 73 1013.6
20260905013015 27 188 0.0 0.0 0.00 0.00 0.00 72 1013.5
20260905012513 27 188 0.0 0.0 0.00 0.00 0.00 72 1013.5
20260905012013 27 188 0.0 0.0 0.00 0.00 0.00 72 1013.4
20260905011513 28 188 0.0 0.0 0.00 0.00 0.00 72 1013.4
20260905011013 28 188 0.0 0.0 0.00 0.00 0.00 72 1013.3
20260905010513 28 188 0.0 0.0 0.00 0.00 0.00 71 1013.3
20260905010012 28 188 0.0 0.0 0.00 0.00 0.00 70 1013.2
20260905005512 28 188 0.0 0.0 0.00 0.00 0.00 69 1013.2
20260905005011 28 188 0.0 0.0 0.00 0.00 0.00 68 1013.1
20260905004513 28 188 0.0 0.0 0.00 0.00 0.00 68 1013.0
20260905004012 28 188 0.0 0.0 0.00 0.00 0.00 68 1012.9
20260905003515 28 188 0.0 0.0 0.00 0.00 0.00 67 1013.0
20260905003022 29 188 0.0 0.0 0.00 0.00 0.00 67 1012.9
20260905002517 29 188 0.0 0.0 0.00 0.00 0.00 66 1012.8
20260905002013 29 188 0.0 0.0 0.00 0.00 0.00 67 1012.9
20260905001511 30 188 0.0 1.6 0.00 0.00 0.00 66 1012.9
20260905001011 30 188 0.0 1.6 0.00 0.00 0.00 65 1012.8
20260905000511 30 188 0.0 1.6 0.00 0.00 0.00 63 1012.7
20260905000011 30 188 0.0 1.6 0.00 0.00 0.00 62 1012.6
20260904235511 31 188 0.0 3.2 0.00 0.00 0.00 62 1012.5
20260904235010 31 188 0.0 3.2 0.00 0.00 0.00 60 1012.5
20260904234510 31 188 0.0 1.6 0.00 0.00 0.00 59 1012.5
20260904234011 32 188 0.0 6.4 0.00 0.00 0.00 57 1012.5
20260904233510 32 188 1.6 6.4 0.00 0.00 0.00 56 1012.4
20260904233030 32 74 3.2 6.4 0.00 0.00 0.00 55 1012.4
20260904232511 32 122 1.6 6.4 0.00 0.00 0.00 56 1012.3
20260904232009 32 214 1.6 4.8 0.00 0.00 0.00 55 1012.4
20260904231510 32 81 1.6 3.2 0.00 0.00 0.00 55 1012.3
20260904231009 32 98 0.0 4.8 0.00 0.00 0.00 55 1012.3
20260904230509 32 77 0.0 4.8 0.00 0.00 0.00 54 1012.3
20260904230025 32 98 0.0 4.8 0.00 0.00 0.00 55 1012.2
20260904225509 33 125 0.0 6.4 0.00 0.00 0.00 54 1012.3
20260904225008 33 70 1.6 6.4 0.00 0.00 0.00 55 1012.2
20260904224508 32 107 1.6 4.8 0.00 0.00 0.00 55 1012.2
20260904224009 32 191 0.0 6.4 0.00 0.00 0.00 55 1012.2
20260904223508 32 172 0.0 3.2 0.00 0.00 0.00 56 1012.1
20260904223008 32 126 1.6 3.2 0.00 0.00 0.00 54 1012.1
20260904222507 33 139 0.0 6.4 0.00 0.00 0.00 54 1012.2
20260904222007 33 139 0.0 9.7 0.00 0.00 0.00 54 1012.2
20260904221508 33 117 1.6 9.7 0.00 0.00 0.00 55 1012.1
20260904221007 33 124 1.6 8.0 0.00 0.00 0.00 53 1012.1
20260904220507 33 134 3.2 6.4 0.00 0.00 0.00 53 1012.2
20260904220012 33 77 1.6 6.4 0.00 0.00 0.00 53 1012.2
20260904215507 33 181 0.0 6.4 0.00 0.00 0.00 54 1012.1
20260904215006 33 141 1.6 6.4 0.00 0.00 0.00 54 1012.2
20260904214506 33 189 0.0 3.2 0.00 0.00 0.00 55 1012.2
20260904214005 33 98 0.0 4.8 0.00 0.00 0.00 55 1012.3
20260904213505 33 98 1.6 4.8 0.00 0.00 0.00 55 1012.3
20260904213005 33 96 1.6 4.8 0.00 0.00 0.00 55 1012.3
20260904212507 33 359 0.0 4.8 0.00 0.00 0.00 55 1012.3
20260904212004 33 308 0.0 4.8 0.00 0.00 0.00 55 1012.4
20260904211504 33 135 1.6 3.2 0.00 0.00 0.00 54 1012.4
20260904211006 33 137 0.0 6.4 0.00 0.00 0.00 56 1012.3
20260904210504 33 139 0.0 6.4 0.00 0.00 0.00 54 1012.3
20260904210004 32 318 0.0 3.2 0.00 0.00 0.00 56 1012.4
20260904205505 32 318 0.0 6.4 0.00 0.00 0.00 57 1012.4
20260904205003 33 318 1.6 6.4 0.00 0.00 0.00 56 1012.3
20260904204502 33 111 0.0 4.8 0.00 0.00 0.00 57 1012.3
20260904204003 33 87 1.6 9.7 0.00 0.00 0.00 55 1012.5
20260904203502 33 103 1.6 9.7 0.00 0.00 0.00 54 1012.4
20260904203001 33 89 1.6 4.8 0.00 0.00 0.00 55 1012.6
20260904202600 33 299 0.0 4.8 0.00 0.00 0.00 55 1012.6
20260904202059 33 326 1.6 6.4 0.00 0.00 0.00 55 1012.8
20260904201618 33 326 0.0 8.0 0.00 0.00 0.00 53 1012.9
20260904201058 33 93 3.2 8.0 0.00 0.00 0.00 53 1012.9
20260904200557 33 129 1.6 6.4 0.00 0.00 0.00 52 1013.0
20260904200058 33 8 1.6 4.8 0.00 0.00 0.00 52 1013.0
20260904195556 33 51 1.6 6.4 0.00 0.00 0.00 53 1013.2
20260904195058 33 134 1.6 6.4 0.00 0.00 0.00 55 1013.2
20260904194558 33 32 1.6 6.4 0.00 0.00 0.00 55 1013.2
20260904194054 33 1 1.6 4.8 0.00 0.00 0.00 54 1013.3
20260904193555 33 143 1.6 4.8 0.00 0.00 0.00 54 1013.3
20260904193059 33 148 0.0 4.8 0.00 0.00 0.00 54 1013.4
20260904192552 33 153 3.2 8.0 0.00 0.00 0.00 54 1013.5
20260904192055 33 172 3.2 8.0 0.00 0.00 0.00 56 1013.6
20260904191551 33 139 1.6 6.4 0.00 0.00 0.00 57 1013.8
20260904191050 33 23 1.6 8.0 0.00 0.00 0.00 56 1013.9
20260904190548 33 153 0.0 8.0 0.00 0.00 0.00 55 1013.9
20260904190049 33 66 1.6 8.0 0.00 0.00 0.00 57 1014.0